Vertical_Velocity
1 -0 0 0 1 0 -0 -1 -2 -1 -1 -1 -2 -0 -1 -1 1 -2 -1 2 0 -2 -3 -2 -0 -0 -3
1 1 1 -0 -1 0 1 0 0 1 0 -2 -3 -4 -2 0 -0 -1 5 -2 0 2 1 1 1 -1 -2
0 1 -1 -1 -1 -0 0 2 1 -1 -0 -0 -0 -2 -0 -3 -1 0 4 -5 0 -1 1 1 1 -1 -2
-0 -1 0 -2 1 -1 -1 -1 -3 -1 -2 -1 -0 2 3 -1 -4 1 1 1 -0 -2 -2 -2 -1 -1 -2
-2 0 -2 -1 1 -1 -1 0 -0 0 0 -0 -4 1 2 2 -0 -1 1 2 -0 -1 -2 -2 -3 -3 -2
-0 2 -3 1 -3 2 4 -3 -2 1 1 -0 5 1 -2 -1 -1 3 -0 -1 -1 -0 -2 -2 -1 -1 -0
2 -1 3 -3 -4 3 -0 2 2 -4 -3 13 -7 7 -5 -2 -0 -0 -2 -2 -2 -3 -4 -2 -3 -3 4
2 1 0 -4 -3 -2 -2 -3 3 6 -2 4 -4 -1 -3 3 0 -2 -1 -1 -3 -3 -1 -1 -1 -3 -2
-1 3 1 0 0 -4 0 -2 1 1 -0 -7 7 -1 -4 2 -6 -1 -2 -1 -2 -3 -2 -1 -1 -2 -3
-2 -1 2 3 2 -3 -0 -1 -3 3 8 -13 3 -5 2 5 -1 -6 -6 -4 -2 -0 1 -2 -1 -5 -2
-1 -1 -1 1 2 -1 -3 -2 1 -4 -0 -11 6 1 -13 3 10 -4 -6 2 -4 -2 -4 -4 -2 -5 -1
-3 3 -0 -1 -0 -1 -1 -0 -5 1 3 -10 -0 -2 -8 -5 1 5 -4 0 -7 -3 -7 -6 -4 -4 -6
-1 -1 -2 -0 -1 2 -4 -2 -2 -0 3 -3 -6 -2 -4 -1 0 8 -0 -1 -3 -3 -3 -2 -1 -6 -3
3 2 -3 -3 -2 -1 0 -7 -3 4 -2 -0 -2 -5 -0 -1 -8 12 -3 1 -2 -1 -9 -0 -3 -1 -3
-0 1 -1 -1 2 -1 -1 -1 -1 0 5 -2 -9 -5 -2 -1 1 -2 3 4 1 6 -10 -1 3 -2 -5
-2 2 2 -0 0 0 -1 -2 -2 2 3 3 -5 -9 -10 1 -8 3 2 2 1 -6 -0 -6 10 -1 -6
-1 -0 -1 0 -2 0 -2 -2 -0 0 1 3 -3 -5 -10 -4 4 -12 5 -1 -9 3 -7 -3 -1 17 -15
Height
5679 5682 5684 5686 5689 5691 5694 5696 5699 5701 5704 5707 5709 5712 5715 5718 5720 5722 5725 5727 5729 5731 5734 5738 5741 5744 5746
5660 5662 5664 5667 5670 5672 5674 5676 5679 5682 5684 5687 5689 5692 5695 5698 5701 5704 5707 5708 5710 5712 5715 5719 5722 5725 5728
5640 5642 5644 5647 5650 5652 5654 5656 5658 5660 5663 5665 5669 5671 5674 5676 5679 5683 5685 5688 5690 5692 5694 5697 5701 5705 5708
5619 5621 5623 5627 5629 5631 5632 5634 5636 5639 5641 5645 5647 5650 5652 5655 5657 5660 5663 5666 5668 5671 5673 5675 5678 5682 5685
5598 5601 5602 5605 5607 5610 5611 5614 5615 5618 5620 5623 5626 5628 5630 5632 5635 5638 5641 5644 5646 5648 5651 5653 5656 5659 5663
5579 5580 5581 5583 5586 5590 5592 5594 5597 5598 5601 5602 5605 5606 5607 5610 5613 5616 5619 5622 5624 5626 5628 5631 5634 5637 5640
5561 5561 5562 5563 5568 5569 5570 5574 5576 5576 5582 5584 5583 5585 5586 5589 5591 5593 5595 5598 5601 5603 5605 5608 5610 5613 5615
5541 5542 5544 5544 5546 5547 5549 5552 5555 5556 5558 5563 5559 5563 5565 5568 5569 5570 5572 5575 5577 5580 5582 5584 5587 5590 5592
5520 5523 5523 5523 5523 5525 5528 5530 5532 5534 5533 5538 5538 5542 5544 5546 5545 5548 5549 5552 5553 5556 5558 5560 5563 5565 5570
5499 5501 5502 5503 5503 5503 5505 5507 5508 5512 5508 5512 5517 5516 5522 5523 5522 5522 5524 5525 5528 5530 5532 5534 5536 5541 5546
5481 5481 5481 5482 5482 5482 5482 5484 5486 5487 5484 5489 5492 5490 5494 5500 5502 5496 5498 5500 5501 5503 5505 5508 5511 5514 5519
5463 5463 5462 5462 5462 5463 5464 5464 5465 5467 5464 5465 5469 5467 5470 5474 5478 5476 5475 5476 5476 5477 5478 5481 5484 5487 5489
5447 5446 5444 5444 5444 5444 5443 5444 5446 5446 5445 5444 5446 5445 5449 5452 5455 5454 5454 5451 5452 5453 5454 5457 5459 5458 5461
5430 5428 5426 5426 5426 5425 5425 5424 5427 5427 5424 5423 5424 5425 5427 5429 5431 5433 5429 5435 5429 5429 5432 5435 5435 5435 5436
5408 5408 5407 5407 5407 5405 5406 5405 5407 5407 5406 5402 5401 5405 5407 5408 5410 5409 5409 5411 5409 5407 5408 5412 5412 5410 5411
5388 5388 5387 5386 5386 5385 5385 5385 5387 5387 5386 5382 5381 5382 5383 5387 5387 5388 5389 5388 5384 5385 5385 5387 5391 5384 5387
5365 5365 5364 5364 5363 5363 5363 5363 5365 5365 5365 5362 5361 5359 5360 5367 5367 5364 5366 5362 5362 5364 5363 5363 5365 5365 5363